GW4762 Weather Reports


Display with metric or nautical units.
time (UTC)temp
F
wind
direction
speed
MPH
gust
MPH
rain 1hr
in
rain 24hr
in
rain mn
in
humidity
%
barometer
mb
20260504081020 61 214 1.0 3.0 0.00 0.00 0.00 72 1018.8
20260504050020 64 259 0.0 2.0 0.00 0.00 0.00 74 1020.0
20260504045020 65 246 1.0 4.0 0.00 0.00 0.00 74 1019.7
20260504044020 65 272 2.0 4.0 0.00 0.00 0.00 74 1019.3
20260504043020 65 281 1.0 3.0 0.00 0.00 0.00 73 1019.6
20260504042020 66 265 1.0 3.0 0.00 0.00 0.00 72 1019.6
20260504041021 66 254 1.0 3.0 0.00 0.00 0.00 70 1019.5
20260504040020 67 233 1.0 3.0 0.00 0.00 0.00 69 1019.6
20260504035017 67 251 2.0 3.0 0.00 0.00 0.00 69 1019.4
20260504034021 67 232 1.0 3.0 0.00 0.00 0.00 69 1019.6
20260504033021 68 258 1.0 3.0 0.00 0.00 0.00 68 1019.5
20260504032022 68 256 1.0 4.0 0.00 0.00 0.00 67 1019.5
20260504031019 68 255 1.0 3.0 0.00 0.00 0.00 65 1019.4
20260504030018 68 263 1.0 4.0 0.00 0.00 0.00 65 1019.4
20260504025018 67 255 1.0 2.0 0.00 0.00 0.00 65 1019.6
20260504024042 68 217 1.0 3.0 0.00 0.00 0.00 63 1019.4
20260504023019 68 232 1.0 3.0 0.00 0.00 0.00 63 1019.4
20260504022019 68 228 1.0 3.0 0.00 0.00 0.00 63 1019.4
20260504021019 68 261 1.0 4.0 0.00 0.00 0.00 62 1019.4
20260504020019 69 232 0.0 2.0 0.00 0.00 0.00 61 1019.3
20260504015017 69 223 2.0 5.0 0.00 0.00 0.00 60 1019.1
20260504014020 69 227 2.0 5.0 0.00 0.00 0.00 59 1018.9
20260504013020 69 226 3.0 6.0 0.00 0.00 0.00 59 1018.8
20260504012041 69 226 2.0 6.0 0.00 0.00 0.00 58 1018.7
20260504011021 70 228 3.0 7.0 0.00 0.00 0.00 58 1018.6
20260504010020 70 229 2.0 9.0 0.00 0.00 0.00 58 1018.8
20260504005041 70 235 3.0 9.0 0.00 0.00 0.00 57 1018.5
20260504004021 71 224 3.0 7.0 0.00 0.00 0.00 59 1018.5
20260504003018 71 226 4.0 9.0 0.00 0.00 0.00 57 1018.3
20260504002019 71 215 2.0 7.0 0.00 0.00 0.00 54 1018.5
20260504001021 72 207 1.0 7.0 0.00 0.00 0.00 53 1018.6
20260504000021 72 207 1.0 4.0 0.00 0.00 0.00 51 1018.4
20260503235019 72 232 2.0 6.0 0.00 0.00 0.00 50 1018.2
20260503234039 73 215 3.0 8.0 0.00 0.00 0.00 49 1018.0
20260503233019 73 226 4.0 7.0 0.00 0.00 0.00 48 1017.8
20260503232019 73 233 3.0 6.0 0.00 0.00 0.00 49 1017.8
20260503231020 73 207 3.0 7.0 0.00 0.00 0.00 48 1017.8
20260503230020 73 206 3.0 8.0 0.00 0.00 0.00 48 1017.7
20260503225020 73 212 3.0 8.0 0.00 0.00 0.00 46 1017.6
20260503224020 73 214 4.0 9.0 0.00 0.00 0.00 45 1017.6
20260503223040 73 196 5.0 9.0 0.00 0.00 0.00 46 1017.5
20260503222020 73 198 5.0 8.0 0.00 0.00 0.00 46 1017.6
20260503221021 73 169 5.0 9.0 0.00 0.00 0.00 47 1017.7
20260503220018 72 186 5.0 11.0 0.00 0.00 0.00 45 1017.8
20260503215017 72 183 4.0 9.0 0.00 0.00 0.00 46 1017.7
20260503214021 73 223 6.0 11.0 0.00 0.00 0.00 45 1017.7
20260503213038 73 208 4.0 8.0 0.00 0.00 0.00 45 1017.6
20260503212018 73 208 5.0 9.0 0.00 0.00 0.00 44 1017.7
20260503211021 73 235 4.0 9.0 0.00 0.00 0.00 46 1017.6
20260503210042 74 224 3.0 7.0 0.00 0.01 0.00 45 1017.7
20260503205019 74 197 3.0 7.0 0.00 0.01 0.00 44 1017.7
20260503204019 75 255 3.0 8.0 0.00 0.01 0.00 42 1017.6
20260503203019 76 90 3.0 8.0 0.00 0.01 0.00 38 1017.6
20260503202019 76 254 2.0 6.0 0.00 0.01 0.00 39 1017.5
20260503201039 76 292 3.0 5.0 0.00 0.01 0.00 39 1017.8
20260503200019 77 346 3.0 9.0 0.00 0.01 0.00 40 1017.9
20260503195020 77 337 2.0 8.0 0.00 0.01 0.00 39 1017.8
20260503194020 76 336 2.0 6.0 0.00 0.01 0.00 39 1017.9
20260503193020 75 326 3.0 7.0 0.00 0.01 0.00 39 1018.7
20260503192021 75 359 2.0 4.0 0.00 0.01 0.00 39 1018.3
20260503191020 76 316 2.0 5.0 0.00 0.01 0.00 37 1018.4
20260503190020 75 327 2.0 5.0 0.00 0.01 0.00 39 1018.8
20260503185020 76 339 2.0 7.0 0.00 0.01 0.00 38 1018.7
20260503184020 75 337 2.0 5.0 0.00 0.01 0.00 39 1018.7
20260503183021 75 321 3.0 7.0 0.00 0.01 0.00 40 1018.9
20260503182022 75 5 2.0 4.0 0.00 0.01 0.00 39 1018.8
20260503181038 75 342 2.0 6.0 0.00 0.01 0.00 40 1019.0
20260503180018 74 32 2.0 6.0 0.00 0.01 0.00 40 1019.0
20260503175018 75 357 4.0 7.0 0.00 0.01 0.00 41 1019.1
20260503174019 74 357 2.0 7.0 0.00 0.01 0.00 41 1019.1
20260503173019 75 6 2.0 6.0 0.00 0.01 0.00 41 1019.0
20260503172019 74 341 2.0 8.0 0.00 0.01 0.00 41 1019.2
20260503171022 74 338 3.0 8.0 0.00 0.01 0.00 40 1019.4